Retour au catalogue

FENGYUN 1C DEB

ActifLEO
NORAD 31861·DEBRIS·🇨🇳 China

Lancé May 10, 1999 depuis Taiyuan Satellite Launch Center

Loading…

Prochains Passages (prochaines 24 heures)

TLE

VieillissantSource: Space-Track

Époque: Sep 9, 2026, 11:54 UTC

1 31861U 99025CKB 26252.49636221  .00001199  00000-0  13353-2 0  9991
2 31861 102.3319 144.3576 0494997 337.5287  20.4803 13.31348768703693

Suivez FENGYUN 1C DEB en temps réel avec AllMySat

Download on the App Store